FW5428 Weather Reports


Display with metric or nautical units.
time (UTC)temp
F
wind
direction
speed
MPH
gust
MPH
rain 1hr
in
rain 24hr
in
rain mn
in
humidity
%
barometer
mb
20260906150504 46 180 9.0 19.0 0.00 0.00 0.00 62 1032.0
20260906145953 46 180 13.0 19.0 0.00 0.00 0.00 60 1032.0
20260906144933 46 180 8.0 16.0 0.00 0.00 0.00 58 1032.4
20260906144422 46 180 11.0 16.0 0.00 0.00 0.00 64 1032.4
20260906143912 46 180 10.0 16.0 0.00 0.00 0.00 59 1032.4
20260906143403 46 180 11.0 16.0 0.00 0.00 0.00 61 1032.5
20260906142852 45 180 13.0 17.0 0.00 0.00 0.00 61 1032.6
20260906142342 45 180 8.0 21.0 0.00 0.00 0.00 58 1032.6
20260906141832 45 180 14.0 21.0 0.00 0.00 0.00 60 1032.6
20260906141322 45 180 16.0 21.0 0.00 0.00 0.00 62 1032.8
20260906140812 45 180 11.0 17.0 0.00 0.00 0.00 64 1032.7
20260906140301 45 225 9.0 21.0 0.00 0.00 0.00 61 1032.6
20260906134731 45 180 15.0 19.0 0.00 0.00 0.00 63 1032.8
20260906134221 45 180 14.0 19.0 0.00 0.00 0.00 60 1032.7
20260906133711 45 180 11.0 22.0 0.00 0.00 0.00 62 1032.8
20260906132651 45 180 7.0 19.0 0.00 0.00 0.00 62 1032.8
20260906132141 45 180 11.0 19.0 0.00 0.00 0.00 62 1032.8
20260906131120 45 180 9.0 20.0 0.00 0.00 0.00 62 1032.9
20260906130611 45 135 12.0 21.0 0.00 0.00 0.00 63 1032.9
20260906125551 45 135 12.0 21.0 0.00 0.00 0.00 64 1032.7
20260906125040 45 180 12.0 23.0 0.00 0.00 0.00 65 1032.8
20260906124020 45 180 10.0 20.0 0.00 0.00 0.00 68 1032.6
20260906123510 45 135 13.0 20.0 0.00 0.00 0.00 69 1032.7
20260906122449 44 225 9.0 22.0 0.00 0.00 0.00 68 1032.6
20260906121939 44 135 16.0 23.0 0.00 0.00 0.00 70 1032.6
20260906121430 44 135 11.0 23.0 0.00 0.00 0.00 70 1032.4
20260906120920 44 135 15.0 23.0 0.00 0.00 0.00 71 1032.5
20260906120409 44 135 15.0 23.0 0.00 0.00 0.00 71 1032.4
20260906115911 44 135 11.0 21.0 0.00 0.00 0.00 70 1032.4
20260906115349 44 135 13.0 21.0 0.00 0.00 0.00 72 1032.4
20260906114838 44 135 11.0 21.0 0.00 0.00 0.00 71 1032.4
20260906114329 44 135 13.0 19.0 0.00 0.00 0.00 71 1032.1
20260906113818 44 135 13.0 20.0 0.00 0.00 0.00 73 1032.3
20260906113308 44 180 14.0 21.0 0.00 0.00 0.00 72 1032.0
20260906112759 44 135 13.0 21.0 0.00 0.00 0.00 72 1032.3
20260906112248 44 180 12.0 21.0 0.00 0.00 0.00 75 1032.0
20260906111738 44 135 15.0 21.0 0.00 0.00 0.00 75 1032.1
20260906111228 44 135 11.0 21.0 0.00 0.00 0.00 76 1031.8
20260906110718 44 135 14.0 22.0 0.00 0.00 0.00 75 1031.9
20260906110208 43 135 15.0 23.0 0.00 0.00 0.00 77 1031.9
20260906105657 43 135 14.0 24.0 0.00 0.00 0.00 78 1031.6
20260906104637 43 225 15.0 23.0 0.00 0.00 0.00 80 1031.8
20260906104127 43 180 14.0 23.0 0.00 0.00 0.00 81 1031.7
20260906103617 43 180 16.0 24.0 0.00 0.00 0.00 81 1031.4
20260906103108 43 270 13.0 24.0 0.00 0.00 0.00 80 1031.2
20260906102557 43 135 18.0 24.0 0.00 0.00 0.00 80 1031.3
20260906102047 43 135 13.0 25.0 0.00 0.00 0.00 80 1031.5
20260906101536 43 180 15.0 25.0 0.00 0.00 0.00 79 1031.4
20260906101026 43 225 10.0 23.0 0.00 0.00 0.00 81 1031.2
20260906100517 43 180 14.0 22.0 0.00 0.00 0.00 80 1031.5
20260906100007 43 180 13.0 26.0 0.00 0.00 0.00 82 1031.1
20260906095456 43 180 10.0 26.0 0.00 0.00 0.00 81 1031.3
20260906094947 43 135 18.0 26.0 0.00 0.00 0.00 80 1031.1
20260906094433 43 180 14.0 28.0 0.00 0.00 0.00 81 1031.1
20260906093926 44 135 15.0 28.0 0.00 0.00 0.00 81 1031.1
20260906092906 44 180 15.0 28.0 0.00 0.00 0.00 82 1031.0
20260906092356 44 135 19.0 30.0 0.00 0.00 0.00 82 1030.7
20260906091845 44 180 23.0 30.0 0.00 0.00 0.00 80 1030.7
20260906090832 44 135 18.0 29.0 0.00 0.00 0.00 80 1030.6
20260906085805 44 180 17.0 30.0 0.00 0.00 0.00 81 1030.3
20260906085255 44 225 19.0 27.0 0.00 0.00 0.00 82 1030.3
20260906084744 44 135 14.0 27.0 0.00 0.00 0.00 83 1030.4
20260906084234 44 180 21.0 27.0 0.00 0.00 0.00 83 1030.1
20260906083725 44 180 18.0 28.0 0.00 0.00 0.00 83 1030.1
20260906083215 44 180 23.0 28.0 0.00 0.00 0.00 82 1030.0
20260906082709 44 180 18.0 25.0 0.00 0.00 0.00 82 1030.1
20260906082214 44 135 21.0 27.0 0.00 0.00 0.00 84 1030.2
20260906081644 44 180 19.0 27.0 0.00 0.00 0.00 85 1030.1
20260906081134 44 135 18.0 26.0 0.00 0.00 0.00 86 1029.8
20260906080623 44 180 19.0 26.0 0.00 0.00 0.00 85 1030.0
20260906080114 44 180 14.0 26.0 0.00 0.00 0.00 85 1030.0
20260906075603 44 180 15.0 24.0 0.00 0.00 0.00 85 1030.1
20260906075053 45 135 15.0 24.0 0.00 0.00 0.00 86 1030.0
20260906074544 45 135 15.0 24.0 0.00 0.00 0.00 85 1030.0
20260906074033 45 135 20.0 27.0 0.00 0.00 0.00 84 1030.0
20260906073523 45 180 17.0 28.0 0.00 0.00 0.00 85 1029.8
20260906073013 46 180 17.0 28.0 0.00 0.00 0.00 85 1030.0
20260906072504 46 180 21.0 26.0 0.00 0.00 0.00 84 1029.9
20260906071952 46 180 19.0 27.0 0.00 0.00 0.00 83 1029.8
20260906071442 46 135 16.0 27.0 0.00 0.00 0.00 84 1030.0
20260906070929 46 180 17.0 22.0 0.00 0.00 0.00 84 1029.7
20260906064852 46 180 13.0 20.0 0.00 0.00 0.00 83 1029.8
20260906064342 46 90 11.0 25.0 0.00 0.00 0.00 83 1029.9
20260906063832 46 180 17.0 25.0 0.00 0.00 0.00 81 1029.7
20260906063322 47 180 15.0 23.0 0.00 0.00 0.00 83 1029.8
20260906062811 47 180 15.0 24.0 0.00 0.00 0.00 82 1029.8
20260906061752 47 180 17.0 26.0 0.00 0.00 0.00 83 1029.8
20260906061241 47 180 19.0 23.0 0.00 0.00 0.00 81 1029.9
20260906060732 47 180 19.0 0.0 0.00 0.00 0.00 81 1029.7
20260906060145 47 180 20.0 0.0 0.00 0.00 0.00 81 1029.7
20260906055643 46 135 21.0 26.0 0.00 0.00 0.00 80 1029.7
20260906055133 46 135 14.0 20.0 0.00 0.00 0.00 87 1029.9
20260906054623 46 180 11.0 15.0 0.00 0.00 0.00 87 1029.7
20260906054113 45 180 9.0 15.0 0.00 0.00 0.00 87 1029.6
20260906053603 45 180 8.0 17.0 0.00 0.00 0.00 87 1029.7
20260906053053 45 270 11.0 17.0 0.00 0.00 0.00 86 1029.9
20260906052542 45 225 11.0 16.0 0.00 0.00 0.00 86 1029.8
20260906051525 45 225 12.0 16.0 0.00 0.00 0.00 86 1029.7
20260906051013 45 225 11.0 16.0 0.00 0.00 0.00 86 1029.7
20260906050502 45 225 9.0 17.0 0.00 0.00 0.00 86 1029.6
20260906045952 46 270 8.0 17.0 0.00 0.00 0.00 86 1029.8
20260906045442 46 225 9.0 15.0 0.00 0.00 0.00 86 1029.8
20260906044939 46 225 8.0 17.0 0.00 0.00 0.00 85 1029.8
20260906044421 46 270 11.0 18.0 0.00 0.00 0.00 85 1029.8
20260906043911 46 270 16.0 18.0 0.00 0.00 0.00 85 1029.7
20260906042851 46 225 11.0 16.0 0.00 0.00 0.00 84 1029.4
20260906042341 46 180 10.0 17.0 0.00 0.00 0.00 85 1029.5
20260906041830 46 225 8.0 17.0 0.00 0.00 0.00 85 1029.6
20260906041324 47 225 9.0 15.0 0.00 0.00 0.00 86 1029.5
20260906040810 47 225 10.0 18.0 0.00 0.00 0.00 86 1029.5
20260906040305 47 180 8.0 20.0 0.00 0.00 0.00 85 1029.4
20260906035751 47 225 15.0 20.0 0.00 0.00 0.00 82 1029.3
20260906035241 48 180 13.0 17.0 0.00 0.00 0.00 85 1029.2
20260906034730 48 180 5.0 22.0 0.00 0.00 0.00 86 1029.2
20260906033200 49 180 17.0 25.0 0.00 0.00 0.00 79 1028.9
20260906032650 49 180 18.0 23.0 0.00 0.00 0.00 79 1028.9
20260906032140 49 135 16.0 27.0 0.00 0.00 0.00 81 1029.0
20260906031629 49 180 18.0 27.0 0.00 0.00 0.00 79 1028.9
20260906031119 49 180 19.0 26.0 0.00 0.00 0.00 80 1028.8
20260906030609 49 180 15.0 26.0 0.00 0.00 0.00 81 1028.7
20260906030100 49 180 21.0 27.0 0.00 0.00 0.00 80 1028.7
20260906025549 49 180 21.0 29.0 0.00 0.00 0.00 78 1028.6
20260906025039 49 180 17.0 29.0 0.00 0.00 0.00 79 1028.5
20260906024529 49 180 18.0 23.0 0.00 0.00 0.00 79 1028.5
20260906024018 49 180 11.0 22.0 0.00 0.00 0.00 80 1028.3
20260906023508 49 180 16.0 21.0 0.00 0.00 0.00 81 1028.5
20260906022959 49 180 17.0 21.0 0.00 0.00 0.00 81 1028.3
20260906022449 49 180 16.0 20.0 0.00 0.00 0.00 81 1028.2
20260906021938 49 225 15.0 20.0 0.00 0.00 0.00 81 1028.2
20260906021428 49 180 15.0 21.0 0.00 0.00 0.00 82 1028.2
20260906020927 49 135 16.0 21.0 0.00 0.00 0.00 80 1028.2
20260906020408 49 180 15.0 23.0 0.00 0.00 0.00 81 1027.9
20260906015857 49 180 18.0 25.0 0.00 0.00 0.00 81 1027.9
20260906014327 49 180 23.0 28.0 0.00 0.00 0.00 78 1027.7
20260906013818 49 180 18.0 29.0 0.00 0.00 0.00 79 1027.6
20260906013307 49 135 21.0 29.0 0.00 0.00 0.00 78 1027.5
20260906012758 49 180 20.0 29.0 0.00 0.00 0.00 78 1027.3
20260906012247 50 180 21.0 30.0 0.00 0.00 0.00 78 1027.2
20260906011227 50 180 23.0 30.0 0.00 0.00 0.00 76 1027.2
20260906010716 50 180 21.0 26.0 0.00 0.00 0.00 75 1027.3
20260906010206 50 270 17.0 26.0 0.00 0.00 0.00 73 1026.8
20260906005656 50 270 19.0 27.0 0.00 0.00 0.00 71 1026.9
20260906005147 50 225 16.0 27.0 0.00 0.00 0.00 73 1026.8
20260906004637 50 225 17.0 28.0 0.00 0.00 0.00 70 1026.9
20260906003616 51 225 19.0 28.0 0.00 0.00 0.00 68 1026.4
20260906003106 51 180 17.0 29.0 0.00 0.00 0.00 68 1026.7
20260906002045 51 225 19.0 27.0 0.00 0.00 0.00 68 1026.3
20260906001535 51 270 20.0 27.0 0.00 0.00 0.00 66 1026.2
20260906001025 51 180 16.0 27.0 0.00 0.00 0.00 68 1026.2
20260906000515 51 225 17.0 24.0 0.00 0.00 0.00 66 1026.2
20260906000005 51 270 15.0 24.0 0.00 0.00 0.00 67 1026.3
20260905235455 51 270 15.0 23.0 0.00 0.00 0.00 68 1026.1
20260905234945 51 225 17.0 23.0 0.00 0.00 0.00 69 1026.0
20260905233414 51 225 16.0 24.0 0.00 0.00 0.00 67 1025.7
20260905232904 51 225 21.0 24.0 0.00 0.00 0.00 65 1025.6
20260905232355 51 225 17.0 23.0 0.00 0.00 0.00 66 1025.6
20260905231844 51 225 17.0 23.0 0.00 0.00 0.00 65 1025.6
20260905230823 51 225 17.0 23.0 0.00 0.00 0.00 63 1025.6
20260905225804 51 225 18.0 24.0 0.00 0.00 0.00 62 1025.6
20260905225254 51 225 16.0 24.0 0.00 0.00 0.00 63 1025.4
20260905224743 51 225 20.0 24.0 0.00 0.00 0.00 61 1025.4
20260905224233 51 225 20.0 23.0 0.00 0.00 0.00 59 1025.1
20260905223723 51 225 16.0 24.0 0.00 0.00 0.00 63 1025.1
20260905223213 52 225 14.0 24.0 0.00 0.00 0.00 61 1025.1
20260905222703 52 225 16.0 22.0 0.00 0.00 0.00 61 1024.9
20260905222206 52 225 16.0 23.0 0.00 0.00 0.00 59 1024.9
20260905221643 52 270 15.0 23.0 0.00 0.00 0.00 60 1024.7
20260905221132 53 180 16.0 23.0 0.00 0.00 0.00 59 1024.5
20260905220622 53 225 15.0 23.0 0.00 0.00 0.00 60 1024.6
20260905215602 53 225 20.0 26.0 0.00 0.00 0.00 58 1024.7
20260905215053 53 225 18.0 23.0 0.00 0.00 0.00 55 1024.4
20260905214543 53 225 14.0 24.0 0.00 0.00 0.00 60 1024.1
20260905214032 53 225 16.0 24.0 0.00 0.00 0.00 55 1024.1
20260905213522 53 180 17.0 26.0 0.00 0.00 0.00 54 1024.2
20260905213012 53 225 21.0 27.0 0.00 0.00 0.00 54 1024.1
20260905212501 54 180 16.0 28.0 0.00 0.00 0.00 59 1024.0
20260905211952 54 225 23.0 31.0 0.00 0.00 0.00 52 1024.0
20260905211441 54 180 21.0 31.0 0.00 0.00 0.00 54 1024.0
20260905210421 54 225 19.0 29.0 0.00 0.00 0.00 56 1023.8
20260905205911 54 225 20.0 29.0 0.00 0.00 0.00 58 1023.8
20260905205401 54 180 15.0 29.0 0.00 0.00 0.00 55 1023.8
20260905204851 55 225 21.0 29.0 0.00 0.00 0.00 53 1023.7
20260905204340 55 225 21.0 30.0 0.00 0.00 0.00 59 1023.4
20260905203830 55 180 23.0 30.0 0.00 0.00 0.00 57 1023.5
20260905203320 55 225 18.0 30.0 0.00 0.00 0.00 57 1023.3
20260905202811 55 180 21.0 30.0 0.00 0.00 0.00 55 1023.3
20260905202300 55 225 21.0 30.0 0.00 0.00 0.00 55 1023.2
20260905201750 55 225 21.0 30.0 0.00 0.00 0.00 53 1023.1
20260905201240 55 225 17.0 30.0 0.00 0.00 0.00 59 1023.0
20260905200730 55 225 19.0 32.0 0.00 0.00 0.00 51 1022.8
20260905200220 55 180 23.0 32.0 0.00 0.00 0.00 53 1023.1
20260905195710 55 225 21.0 30.0 0.00 0.00 0.00 54 1023.1
20260905194649 55 180 23.0 36.0 0.00 0.00 0.00 56 1022.9
20260905193630 55 225 23.0 34.0 0.00 0.00 0.00 53 1023.0
20260905193126 55 225 22.0 35.0 0.00 0.00 0.00 58 1022.8
20260905192609 55 225 27.0 35.0 0.00 0.00 0.00 52 1022.9
20260905192059 55 180 21.0 35.0 0.00 0.00 0.00 55 1022.9
20260905191549 55 225 20.0 36.0 0.00 0.00 0.00 53 1022.6
20260905191039 55 270 19.0 40.0 0.00 0.00 0.00 51 1022.6
20260905190530 55 180 30.0 40.0 0.00 0.00 0.00 49 1022.9
20260905185508 55 180 23.0 34.0 0.00 0.00 0.00 47 1022.6
20260905184958 56 180 21.0 33.0 0.00 0.00 0.00 54 1022.7
20260905184448 56 225 26.0 33.0 0.00 0.00 0.00 55 1022.4
20260905183938 56 225 23.0 30.0 0.00 0.00 0.00 55 1022.6
20260905183428 56 135 18.0 30.0 0.00 0.00 0.00 53 1022.7
20260905182918 56 225 23.0 31.0 0.00 0.00 0.00 55 1022.5
20260905182408 56 225 24.0 31.0 0.00 0.00 0.00 55 1022.6
20260905181347 56 180 21.0 34.0 0.00 0.00 0.00 57 1022.5
20260905180838 56 225 27.0 34.0 0.00 0.00 0.00 55 1022.4
20260905180329 56 225 21.0 30.0 0.00 0.00 0.00 61 1022.3
20260905175308 55 180 21.0 31.0 0.00 0.00 0.00 55 1022.6
20260905174757 55 180 24.0 31.0 0.00 0.00 0.00 60 1022.5
20260905174247 55 180 22.0 30.0 0.00 0.00 0.00 60 1022.5
20260905173736 55 180 25.0 30.0 0.00 0.00 0.00 64 1022.5
20260905173226 55 225 15.0 30.0 0.00 0.00 0.00 58 1022.6
20260905172716 55 270 24.0 30.0 0.00 0.00 0.00 61 1022.8
20260905172206 55 225 15.0 34.0 0.00 0.00 0.00 64 1022.9
20260905171657 55 225 24.0 34.0 0.00 0.00 0.00 59 1023.1
20260905171146 55 225 21.0 34.0 0.00 0.00 0.00 61 1022.9
20260905170126 54 225 18.0 25.0 0.00 0.00 0.00 66 1023.2
20260905165616 53 180 19.0 23.0 0.00 0.00 0.00 71 1023.1
20260905165106 53 180 17.0 26.0 0.00 0.00 0.00 73 1023.2
20260905164556 53 180 16.0 26.0 0.00 0.00 0.00 72 1023.3
20260905164049 53 180 23.0 26.0 0.00 0.00 0.00 75 1023.3
20260905163025 53 180 22.0 25.0 0.00 0.00 0.00 71 1023.3
20260905162515 53 180 20.0 24.0 0.00 0.00 0.00 73 1023.3
20260905162005 53 180 17.0 25.0 0.00 0.00 0.00 71 1023.4
20260905161455 53 180 16.0 25.0 0.00 0.00 0.00 72 1023.4
20260905160945 53 180 21.0 25.0 0.00 0.00 0.00 70 1023.5
20260905160434 53 180 17.0 23.0 0.00 0.00 0.00 72 1023.6
20260905155924 53 180 17.0 25.0 0.00 0.00 0.00 71 1023.3
20260905155415 53 180 17.0 25.0 0.00 0.00 0.00 73 1023.5
20260905154905 53 135 20.0 25.0 0.00 0.00 0.00 74 1023.3
20260905153844 53 180 17.0 23.0 0.00 0.00 0.00 74 1023.5
20260905153334 53 180 17.0 23.0 0.00 0.00 0.00 74 1023.6
20260905152823 53 180 15.0 22.0 0.00 0.00 0.00 73 1023.7
20260905152314 52 180 13.0 24.0 0.00 0.00 0.00 73 1023.4
20260905151804 53 180 21.0 26.0 0.00 0.00 0.00 69 1023.5
20260905151254 52 180 16.0 26.0 0.00 0.00 0.00 72 1023.6